owner,sensor,date,latitude,longitude,air_pressure(mBar),qcFlag 
COMPS,ioos:station:USF.COMPS:SHP:1,2008-12-01T00:00:00Z,30.0600,-84.2910,1003.44,1111122 
COMPS,ioos:station:USF.COMPS:SHP:1,2008-12-01T00:06:00Z,30.0600,-84.2910,1003.64,1111122 
COMPS,ioos:station:USF.COMPS:SHP:1,2008-12-01T00:12:00Z,30.0600,-84.2910,1003.54,1111122 
COMPS,ioos:station:USF.COMPS:SHP:1,2008-12-01T00:18:00Z,30.0600,-84.2910,1003.72,1111122 
COMPS,ioos:station:USF.COMPS:SHP:1,2008-12-01T00:24:00Z,30.0600,-84.2910,1003.85,1111122 
COMPS,ioos:station:USF.COMPS:SHP:1,2008-12-01T00:30:00Z,30.0600,-84.2910,1003.98,1111122 
COMPS,ioos:station:USF.COMPS:SHP:1,2008-12-01T00:36:00Z,30.0600,-84.2910,1004.1,1111122 
COMPS,ioos:station:USF.COMPS:SHP:1,2008-12-01T00:42:00Z,30.0600,-84.2910,1004.06,1111122 
COMPS,ioos:station:USF.COMPS:SHP:1,2008-12-01T00:48:00Z,30.0600,-84.2910,1004.14,1111122 
COMPS,ioos:station:USF.COMPS:SHP:1,2008-12-01T00:54:00Z,30.0600,-84.2910,1004.17,1111122 
COMPS,ioos:station:USF.COMPS:SHP:1,2008-12-01T01:00:00Z,30.0600,-84.2910,1004.26,1111122 
COMPS,ioos:station:USF.COMPS:SHP:1,2008-12-01T01:06:00Z,30.0600,-84.2910,1004.41,1111122 
COMPS,ioos:station:USF.COMPS:SHP:1,2008-12-01T01:12:00Z,30.0600,-84.2910,1004.45,1111122 
COMPS,ioos:station:USF.COMPS:SHP:1,2008-12-01T01:18:00Z,30.0600,-84.2910,1004.54,1111122 
COMPS,ioos:station:USF.COMPS:SHP:1,2008-12-01T01:24:00Z,30.0600,-84.2910,1004.73,1111122 
COMPS,ioos:station:USF.COMPS:SHP:1,2008-12-01T01:30:00Z,30.0600,-84.2910,1004.92,1111122 
COMPS,ioos:station:USF.COMPS:SHP:1,2008-12-01T01:36:00Z,30.0600,-84.2910,1005.04,1111122 
COMPS,ioos:station:USF.COMPS:SHP:1,2008-12-01T01:42:00Z,30.0600,-84.2910,1005.1,1111122 
COMPS,ioos:station:USF.COMPS:SHP:1,2008-12-01T01:48:00Z,30.0600,-84.2910,1005.25,1111122 
COMPS,ioos:station:USF.COMPS:SHP:1,2008-12-01T01:54:00Z,30.0600,-84.2910,1005.4,1111122 
COMPS,ioos:station:USF.COMPS:SHP:1,2008-12-01T02:00:00Z,30.0600,-84.2910,1005.56,1111122 
COMPS,ioos:station:USF.COMPS:SHP:1,2008-12-01T02:06:00Z,30.0600,-84.2910,1005.57,1111122 
COMPS,ioos:station:USF.COMPS:SHP:1,2008-12-01T02:12:00Z,30.0600,-84.2910,1005.68,1111122 
COMPS,ioos:station:USF.COMPS:SHP:1,2008-12-01T02:18:00Z,30.0600,-84.2910,1005.68,1111122 
COMPS,ioos:station:USF.COMPS:SHP:1,2008-12-01T02:24:00Z,30.0600,-84.2910,1005.65,1111122 
COMPS,ioos:station:USF.COMPS:SHP:1,2008-12-01T02:30:00Z,30.0600,-84.2910,1005.66,1111122 
COMPS,ioos:station:USF.COMPS:SHP:1,2008-12-01T02:36:00Z,30.0600,-84.2910,1005.65,1111122 
COMPS,ioos:station:USF.COMPS:SHP:1,2008-12-01T02:42:00Z,30.0600,-84.2910,1005.69,1111122 
COMPS,ioos:station:USF.COMPS:SHP:1,2008-12-01T02:48:00Z,30.0600,-84.2910,1005.8,1111122 
COMPS,ioos:station:USF.COMPS:SHP:1,2008-12-01T02:54:00Z,30.0600,-84.2910,1005.81,1111122 
COMPS,ioos:station:USF.COMPS:SHP:1,2008-12-01T03:00:00Z,30.0600,-84.2910,1006.02,1111122 
COMPS,ioos:station:USF.COMPS:SHP:1,2008-12-01T03:06:00Z,30.0600,-84.2910,1006.01,1111122 
COMPS,ioos:station:USF.COMPS:SHP:1,2008-12-01T03:12:00Z,30.0600,-84.2910,1006.2,1111122 
COMPS,ioos:station:USF.COMPS:SHP:1,2008-12-01T03:18:00Z,30.0600,-84.2910,1006.29,1111122 
COMPS,ioos:station:USF.COMPS:SHP:1,2008-12-01T03:24:00Z,30.0600,-84.2910,1006.4,1111122 
COMPS,ioos:station:USF.COMPS:SHP:1,2008-12-01T03:30:00Z,30.0600,-84.2910,1006.48,1111122 
COMPS,ioos:station:USF.COMPS:SHP:1,2008-12-01T03:36:00Z,30.0600,-84.2910,1006.56,1111122 
COMPS,ioos:station:USF.COMPS:SHP:1,2008-12-01T03:42:00Z,30.0600,-84.2910,1006.64,1111122 
COMPS,ioos:station:USF.COMPS:SHP:1,2008-12-01T03:48:00Z,30.0600,-84.2910,1006.7,1111122 
COMPS,ioos:station:USF.COMPS:SHP:1,2008-12-01T03:54:00Z,30.0600,-84.2910,1006.81,1111122 
COMPS,ioos:station:USF.COMPS:SHP:1,2008-12-01T04:00:00Z,30.0600,-84.2910,1006.89,1111122 
COMPS,ioos:station:USF.COMPS:SHP:1,2008-12-01T04:06:00Z,30.0600,-84.2910,1006.97,1111122 
COMPS,ioos:station:USF.COMPS:SHP:1,2008-12-01T04:12:00Z,30.0600,-84.2910,1007.06,1111122 
COMPS,ioos:station:USF.COMPS:SHP:1,2008-12-01T04:18:00Z,30.0600,-84.2910,1007.13,1111122 
COMPS,ioos:station:USF.COMPS:SHP:1,2008-12-01T04:24:00Z,30.0600,-84.2910,1007.3,1111122 
COMPS,ioos:station:USF.COMPS:SHP:1,2008-12-01T04:30:00Z,30.0600,-84.2910,1007.4,1111122 
COMPS,ioos:station:USF.COMPS:SHP:1,2008-12-01T04:36:00Z,30.0600,-84.2910,1007.53,1111122 
COMPS,ioos:station:USF.COMPS:SHP:1,2008-12-01T04:42:00Z,30.0600,-84.2910,1007.62,1111122 
COMPS,ioos:station:USF.COMPS:SHP:1,2008-12-01T04:48:00Z,30.0600,-84.2910,1007.74,1111122 
COMPS,ioos:station:USF.COMPS:SHP:1,2008-12-01T04:54:00Z,30.0600,-84.2910,1007.88,1111122 
COMPS,ioos:station:USF.COMPS:SHP:1,2008-12-01T05:00:00Z,30.0600,-84.2910,1007.97,1111122 
COMPS,ioos:station:USF.COMPS:SHP:1,2008-12-01T05:06:00Z,30.0600,-84.2910,1008.05,1111122 
COMPS,ioos:station:USF.COMPS:SHP:1,2008-12-01T05:12:00Z,30.0600,-84.2910,1008.09,1111122 
COMPS,ioos:station:USF.COMPS:SHP:1,2008-12-01T05:18:00Z,30.0600,-84.2910,1008.0,1111122 
COMPS,ioos:station:USF.COMPS:SHP:1,2008-12-01T05:24:00Z,30.0600,-84.2910,1008.05,1111122 
COMPS,ioos:station:USF.COMPS:SHP:1,2008-12-01T05:30:00Z,30.0600,-84.2910,1008.08,1111122 
COMPS,ioos:station:USF.COMPS:SHP:1,2008-12-01T05:36:00Z,30.0600,-84.2910,1008.21,1111122 
COMPS,ioos:station:USF.COMPS:SHP:1,2008-12-01T05:42:00Z,30.0600,-84.2910,1008.29,1111122 
COMPS,ioos:station:USF.COMPS:SHP:1,2008-12-01T05:48:00Z,30.0600,-84.2910,1008.3,1111122 
COMPS,ioos:station:USF.COMPS:SHP:1,2008-12-01T05:54:00Z,30.0600,-84.2910,1008.4,1111122 
COMPS,ioos:station:USF.COMPS:SHP:1,2008-12-01T06:00:00Z,30.0600,-84.2910,1008.53,1111122 
COMPS,ioos:station:USF.COMPS:SHP:1,2008-12-01T06:06:00Z,30.0600,-84.2910,1008.61,1111122 
COMPS,ioos:station:USF.COMPS:SHP:1,2008-12-01T06:12:00Z,30.0600,-84.2910,1008.69,1111122 
COMPS,ioos:station:USF.COMPS:SHP:1,2008-12-01T06:18:00Z,30.0600,-84.2910,1008.88,1111122 
COMPS,ioos:station:USF.COMPS:SHP:1,2008-12-01T06:24:00Z,30.0600,-84.2910,1009.05,1111122 
COMPS,ioos:station:USF.COMPS:SHP:1,2008-12-01T06:30:00Z,30.0600,-84.2910,1009.24,1111122 
COMPS,ioos:station:USF.COMPS:SHP:1,2008-12-01T06:36:00Z,30.0600,-84.2910,1009.57,1111122 
COMPS,ioos:station:USF.COMPS:SHP:1,2008-12-01T06:42:00Z,30.0600,-84.2910,1009.73,1111122 
COMPS,ioos:station:USF.COMPS:SHP:1,2008-12-01T06:48:00Z,30.0600,-84.2910,1009.85,1111122 
COMPS,ioos:station:USF.COMPS:SHP:1,2008-12-01T06:54:00Z,30.0600,-84.2910,1009.82,1111122 
COMPS,ioos:station:USF.COMPS:SHP:1,2008-12-01T07:00:00Z,30.0600,-84.2910,1009.78,1111122 
COMPS,ioos:station:USF.COMPS:SHP:1,2008-12-01T07:06:00Z,30.0600,-84.2910,1009.94,1111122 
COMPS,ioos:station:USF.COMPS:SHP:1,2008-12-01T07:12:00Z,30.0600,-84.2910,1010.09,1111122 
COMPS,ioos:station:USF.COMPS:SHP:1,2008-12-01T07:18:00Z,30.0600,-84.2910,1010.08,1111122 
COMPS,ioos:station:USF.COMPS:SHP:1,2008-12-01T07:24:00Z,30.0600,-84.2910,1010.25,1111122 
COMPS,ioos:station:USF.COMPS:SHP:1,2008-12-01T07:30:00Z,30.0600,-84.2910,1010.41,1111122 
COMPS,ioos:station:USF.COMPS:SHP:1,2008-12-01T07:36:00Z,30.0600,-84.2910,1010.42,1111122 
COMPS,ioos:station:USF.COMPS:SHP:1,2008-12-01T07:42:00Z,30.0600,-84.2910,1010.42,1111122 
COMPS,ioos:station:USF.COMPS:SHP:1,2008-12-01T07:48:00Z,30.0600,-84.2910,1010.53,1111122 
COMPS,ioos:station:USF.COMPS:SHP:1,2008-12-01T07:54:00Z,30.0600,-84.2910,1010.41,1111122 
COMPS,ioos:station:USF.COMPS:SHP:1,2008-12-01T08:00:00Z,30.0600,-84.2910,1010.36,1111122 
COMPS,ioos:station:USF.COMPS:SHP:1,2008-12-01T08:06:00Z,30.0600,-84.2910,1010.42,1111122 
COMPS,ioos:station:USF.COMPS:SHP:1,2008-12-01T08:12:00Z,30.0600,-84.2910,1010.68,1111122 
COMPS,ioos:station:USF.COMPS:SHP:1,2008-12-01T08:18:00Z,30.0600,-84.2910,1010.86,1111122 
COMPS,ioos:station:USF.COMPS:SHP:1,2008-12-01T08:24:00Z,30.0600,-84.2910,1010.86,1111122 
COMPS,ioos:station:USF.COMPS:SHP:1,2008-12-01T08:30:00Z,30.0600,-84.2910,1010.84,1111122 
COMPS,ioos:station:USF.COMPS:SHP:1,2008-12-01T08:36:00Z,30.0600,-84.2910,1010.81,1111122 
COMPS,ioos:station:USF.COMPS:SHP:1,2008-12-01T08:42:00Z,30.0600,-84.2910,1010.93,1111122 
COMPS,ioos:station:USF.COMPS:SHP:1,2008-12-01T08:48:00Z,30.0600,-84.2910,1011.04,1111122 
COMPS,ioos:station:USF.COMPS:SHP:1,2008-12-01T08:54:00Z,30.0600,-84.2910,1011.0,1111122 
COMPS,ioos:station:USF.COMPS:SHP:1,2008-12-01T09:00:00Z,30.0600,-84.2910,1011.08,1111122 
COMPS,ioos:station:USF.COMPS:SHP:1,2008-12-01T09:06:00Z,30.0600,-84.2910,1011.14,1111122 
COMPS,ioos:station:USF.COMPS:SHP:1,2008-12-01T09:12:00Z,30.0600,-84.2910,1011.05,1111122 
COMPS,ioos:station:USF.COMPS:SHP:1,2008-12-01T09:18:00Z,30.0600,-84.2910,1010.93,1111122 
COMPS,ioos:station:USF.COMPS:SHP:1,2008-12-01T09:24:00Z,30.0600,-84.2910,1011.16,1111122 
COMPS,ioos:station:USF.COMPS:SHP:1,2008-12-01T09:30:00Z,30.0600,-84.2910,1011.34,1111122 
COMPS,ioos:station:USF.COMPS:SHP:1,2008-12-01T09:36:00Z,30.0600,-84.2910,1011.41,1111122 
COMPS,ioos:station:USF.COMPS:SHP:1,2008-12-01T09:42:00Z,30.0600,-84.2910,1011.54,1111122 
COMPS,ioos:station:USF.COMPS:SHP:1,2008-12-01T09:48:00Z,30.0600,-84.2910,1011.4,1111122 
COMPS,ioos:station:USF.COMPS:SHP:1,2008-12-01T09:54:00Z,30.0600,-84.2910,1011.45,1111122 
COMPS,ioos:station:USF.COMPS:SHP:1,2008-12-01T10:00:00Z,30.0600,-84.2910,1011.68,1111122 
COMPS,ioos:station:USF.COMPS:SHP:1,2008-12-01T10:06:00Z,30.0600,-84.2910,1011.65,1111122 
COMPS,ioos:station:USF.COMPS:SHP:1,2008-12-01T10:12:00Z,30.0600,-84.2910,1011.81,1111122 
COMPS,ioos:station:USF.COMPS:SHP:1,2008-12-01T10:18:00Z,30.0600,-84.2910,1011.8,1111122 
COMPS,ioos:station:USF.COMPS:SHP:1,2008-12-01T10:24:00Z,30.0600,-84.2910,1011.93,1111122 
COMPS,ioos:station:USF.COMPS:SHP:1,2008-12-01T10:30:00Z,30.0600,-84.2910,1012.25,1111122 
COMPS,ioos:station:USF.COMPS:SHP:1,2008-12-01T10:36:00Z,30.0600,-84.2910,1012.42,1111122 
COMPS,ioos:station:USF.COMPS:SHP:1,2008-12-01T10:42:00Z,30.0600,-84.2910,1012.41,1111122 
COMPS,ioos:station:USF.COMPS:SHP:1,2008-12-01T10:48:00Z,30.0600,-84.2910,1012.42,1111122 
COMPS,ioos:station:USF.COMPS:SHP:1,2008-12-01T10:54:00Z,30.0600,-84.2910,1012.4,1111122 
COMPS,ioos:station:USF.COMPS:SHP:1,2008-12-01T11:00:00Z,30.0600,-84.2910,1012.5,1111122 
COMPS,ioos:station:USF.COMPS:SHP:1,2008-12-01T11:06:00Z,30.0600,-84.2910,1012.52,1111122 
COMPS,ioos:station:USF.COMPS:SHP:1,2008-12-01T11:12:00Z,30.0600,-84.2910,1012.61,1111122 
COMPS,ioos:station:USF.COMPS:SHP:1,2008-12-01T11:18:00Z,30.0600,-84.2910,1012.78,1111122 
COMPS,ioos:station:USF.COMPS:SHP:1,2008-12-01T11:24:00Z,30.0600,-84.2910,1013.05,1111122 
COMPS,ioos:station:USF.COMPS:SHP:1,2008-12-01T11:30:00Z,30.0600,-84.2910,1013.26,1111122 
COMPS,ioos:station:USF.COMPS:SHP:1,2008-12-01T11:36:00Z,30.0600,-84.2910,1013.37,1111122 
COMPS,ioos:station:USF.COMPS:SHP:1,2008-12-01T11:42:00Z,30.0600,-84.2910,1013.41,1111122 
COMPS,ioos:station:USF.COMPS:SHP:1,2008-12-01T11:48:00Z,30.0600,-84.2910,1013.56,1111122 
COMPS,ioos:station:USF.COMPS:SHP:1,2008-12-01T11:54:00Z,30.0600,-84.2910,1013.6,1111122 
COMPS,ioos:station:USF.COMPS:SHP:1,2008-12-01T14:00:00Z,30.0600,-84.2910,1015.69,1111122 
COMPS,ioos:station:USF.COMPS:SHP:1,2008-12-01T14:06:00Z,30.0600,-84.2910,1015.6,1111122 
COMPS,ioos:station:USF.COMPS:SHP:1,2008-12-01T14:12:00Z,30.0600,-84.2910,1015.65,1111122 
COMPS,ioos:station:USF.COMPS:SHP:1,2008-12-01T14:18:00Z,30.0600,-84.2910,1015.69,1111122 
COMPS,ioos:station:USF.COMPS:SHP:1,2008-12-01T14:24:00Z,30.0600,-84.2910,1015.85,1111122 
COMPS,ioos:station:USF.COMPS:SHP:1,2008-12-01T14:30:00Z,30.0600,-84.2910,1016.01,1111122 
COMPS,ioos:station:USF.COMPS:SHP:1,2008-12-01T14:36:00Z,30.0600,-84.2910,1016.09,1111122 
COMPS,ioos:station:USF.COMPS:SHP:1,2008-12-01T14:42:00Z,30.0600,-84.2910,1016.18,1111122 
COMPS,ioos:station:USF.COMPS:SHP:1,2008-12-01T14:48:00Z,30.0600,-84.2910,1016.33,1111122 
COMPS,ioos:station:USF.COMPS:SHP:1,2008-12-01T14:54:00Z,30.0600,-84.2910,1016.44,1111122 
COMPS,ioos:station:USF.COMPS:SHP:1,2008-12-01T15:00:00Z,30.0600,-84.2910,1016.37,1111122 
COMPS,ioos:station:USF.COMPS:SHP:1,2008-12-01T15:06:00Z,30.0600,-84.2910,1016.3,1111122 
COMPS,ioos:station:USF.COMPS:SHP:1,2008-12-01T15:12:00Z,30.0600,-84.2910,1016.17,1111122 
COMPS,ioos:station:USF.COMPS:SHP:1,2008-12-01T15:18:00Z,30.0600,-84.2910,1016.29,1111122 
COMPS,ioos:station:USF.COMPS:SHP:1,2008-12-01T15:24:00Z,30.0600,-84.2910,1016.42,1111122 
COMPS,ioos:station:USF.COMPS:SHP:1,2008-12-01T15:30:00Z,30.0600,-84.2910,1016.64,1111122 
COMPS,ioos:station:USF.COMPS:SHP:1,2008-12-01T15:36:00Z,30.0600,-84.2910,1016.62,1111122 
COMPS,ioos:station:USF.COMPS:SHP:1,2008-12-01T15:42:00Z,30.0600,-84.2910,1016.81,1111122 
COMPS,ioos:station:USF.COMPS:SHP:1,2008-12-01T15:48:00Z,30.0600,-84.2910,1016.84,1111122 
COMPS,ioos:station:USF.COMPS:SHP:1,2008-12-01T15:54:00Z,30.0600,-84.2910,1016.88,1111122 
COMPS,ioos:station:USF.COMPS:SHP:1,2008-12-01T16:00:00Z,30.0600,-84.2910,1016.96,1111122 
COMPS,ioos:station:USF.COMPS:SHP:1,2008-12-01T16:06:00Z,30.0600,-84.2910,1017.02,1111122 
COMPS,ioos:station:USF.COMPS:SHP:1,2008-12-01T16:12:00Z,30.0600,-84.2910,1017.1,1111122 
COMPS,ioos:station:USF.COMPS:SHP:1,2008-12-01T16:18:00Z,30.0600,-84.2910,1017.14,1111122 
COMPS,ioos:station:USF.COMPS:SHP:1,2008-12-01T16:24:00Z,30.0600,-84.2910,1017.1,1111122 
COMPS,ioos:station:USF.COMPS:SHP:1,2008-12-01T16:30:00Z,30.0600,-84.2910,1017.04,1111122 
COMPS,ioos:station:USF.COMPS:SHP:1,2008-12-01T16:36:00Z,30.0600,-84.2910,1017.02,1111122 
COMPS,ioos:station:USF.COMPS:SHP:1,2008-12-01T16:42:00Z,30.0600,-84.2910,1016.97,1111122 
COMPS,ioos:station:USF.COMPS:SHP:1,2008-12-01T16:48:00Z,30.0600,-84.2910,1016.93,1111122 
COMPS,ioos:station:USF.COMPS:SHP:1,2008-12-01T16:54:00Z,30.0600,-84.2910,1016.89,1111122 
COMPS,ioos:station:USF.COMPS:SHP:1,2008-12-01T17:00:00Z,30.0600,-84.2910,1016.9,1111122 
COMPS,ioos:station:USF.COMPS:SHP:1,2008-12-01T17:06:00Z,30.0600,-84.2910,1016.84,1111122 
COMPS,ioos:station:USF.COMPS:SHP:1,2008-12-01T17:12:00Z,30.0600,-84.2910,1016.76,1111122 
COMPS,ioos:station:USF.COMPS:SHP:1,2008-12-01T17:18:00Z,30.0600,-84.2910,1016.72,1111122 
COMPS,ioos:station:USF.COMPS:SHP:1,2008-12-01T17:24:00Z,30.0600,-84.2910,1016.64,1111122 
COMPS,ioos:station:USF.COMPS:SHP:1,2008-12-01T17:30:00Z,30.0600,-84.2910,1016.52,1111122 
COMPS,ioos:station:USF.COMPS:SHP:1,2008-12-01T17:36:00Z,30.0600,-84.2910,1016.49,1111122 
COMPS,ioos:station:USF.COMPS:SHP:1,2008-12-01T17:42:00Z,30.0600,-84.2910,1016.37,1111122 
COMPS,ioos:station:USF.COMPS:SHP:1,2008-12-01T17:48:00Z,30.0600,-84.2910,1016.26,1111122 
COMPS,ioos:station:USF.COMPS:SHP:1,2008-12-01T17:54:00Z,30.0600,-84.2910,1016.24,1111122 
COMPS,ioos:station:USF.COMPS:SHP:1,2008-12-01T18:00:00Z,30.0600,-84.2910,1016.09,1111122 
COMPS,ioos:station:USF.COMPS:SHP:1,2008-12-01T18:06:00Z,30.0600,-84.2910,1016.02,1111122 
COMPS,ioos:station:USF.COMPS:SHP:1,2008-12-01T18:12:00Z,30.0600,-84.2910,1015.97,1111122 
COMPS,ioos:station:USF.COMPS:SHP:1,2008-12-01T18:18:00Z,30.0600,-84.2910,1015.78,1111122 
COMPS,ioos:station:USF.COMPS:SHP:1,2008-12-01T18:24:00Z,30.0600,-84.2910,1015.69,1111122 
COMPS,ioos:station:USF.COMPS:SHP:1,2008-12-01T18:30:00Z,30.0600,-84.2910,1015.61,1111122 
COMPS,ioos:station:USF.COMPS:SHP:1,2008-12-01T18:36:00Z,30.0600,-84.2910,1015.62,1111122 
COMPS,ioos:station:USF.COMPS:SHP:1,2008-12-01T18:42:00Z,30.0600,-84.2910,1015.61,1111122 
COMPS,ioos:station:USF.COMPS:SHP:1,2008-12-01T18:48:00Z,30.0600,-84.2910,1015.58,1111122 
COMPS,ioos:station:USF.COMPS:SHP:1,2008-12-01T18:54:00Z,30.0600,-84.2910,1015.57,1111122 
COMPS,ioos:station:USF.COMPS:SHP:1,2008-12-01T19:00:00Z,30.0600,-84.2910,1015.58,1111122 
COMPS,ioos:station:USF.COMPS:SHP:1,2008-12-01T19:06:00Z,30.0600,-84.2910,1015.57,1111122 
COMPS,ioos:station:USF.COMPS:SHP:1,2008-12-01T19:12:00Z,30.0600,-84.2910,1015.41,1111122 
COMPS,ioos:station:USF.COMPS:SHP:1,2008-12-01T19:18:00Z,30.0600,-84.2910,1015.33,1111122 
COMPS,ioos:station:USF.COMPS:SHP:1,2008-12-01T19:24:00Z,30.0600,-84.2910,1015.41,1111122 
COMPS,ioos:station:USF.COMPS:SHP:1,2008-12-01T19:30:00Z,30.0600,-84.2910,1015.44,1111122 
COMPS,ioos:station:USF.COMPS:SHP:1,2008-12-01T19:36:00Z,30.0600,-84.2910,1015.32,1111122 
COMPS,ioos:station:USF.COMPS:SHP:1,2008-12-01T19:42:00Z,30.0600,-84.2910,1015.41,1111122 
COMPS,ioos:station:USF.COMPS:SHP:1,2008-12-01T19:48:00Z,30.0600,-84.2910,1015.49,1111122 
COMPS,ioos:station:USF.COMPS:SHP:1,2008-12-01T19:54:00Z,30.0600,-84.2910,1015.54,1111122 
COMPS,ioos:station:USF.COMPS:SHP:1,2008-12-01T20:00:00Z,30.0600,-84.2910,1015.61,1111122 
COMPS,ioos:station:USF.COMPS:SHP:1,2008-12-01T20:06:00Z,30.0600,-84.2910,1015.6,1111122 
COMPS,ioos:station:USF.COMPS:SHP:1,2008-12-01T20:12:00Z,30.0600,-84.2910,1015.64,1111122 
COMPS,ioos:station:USF.COMPS:SHP:1,2008-12-01T20:18:00Z,30.0600,-84.2910,1015.66,1111122 
COMPS,ioos:station:USF.COMPS:SHP:1,2008-12-01T20:24:00Z,30.0600,-84.2910,1015.65,1111122 
COMPS,ioos:station:USF.COMPS:SHP:1,2008-12-01T20:30:00Z,30.0600,-84.2910,1015.65,1111122 
COMPS,ioos:station:USF.COMPS:SHP:1,2008-12-01T20:36:00Z,30.0600,-84.2910,1015.58,1111122 
COMPS,ioos:station:USF.COMPS:SHP:1,2008-12-01T20:42:00Z,30.0600,-84.2910,1015.66,1111122 
COMPS,ioos:station:USF.COMPS:SHP:1,2008-12-01T20:48:00Z,30.0600,-84.2910,1015.68,1111122 
COMPS,ioos:station:USF.COMPS:SHP:1,2008-12-01T20:54:00Z,30.0600,-84.2910,1015.62,1111122 
COMPS,ioos:station:USF.COMPS:SHP:1,2008-12-01T21:00:00Z,30.0600,-84.2910,1015.64,1111122 
COMPS,ioos:station:USF.COMPS:SHP:1,2008-12-01T21:06:00Z,30.0600,-84.2910,1015.69,1111122 
COMPS,ioos:station:USF.COMPS:SHP:1,2008-12-01T21:12:00Z,30.0600,-84.2910,1015.72,1111122 
COMPS,ioos:station:USF.COMPS:SHP:1,2008-12-01T21:18:00Z,30.0600,-84.2910,1015.77,1111122 
COMPS,ioos:station:USF.COMPS:SHP:1,2008-12-01T21:24:00Z,30.0600,-84.2910,1015.76,1111122 
COMPS,ioos:station:USF.COMPS:SHP:1,2008-12-01T21:30:00Z,30.0600,-84.2910,1015.89,1111122 
COMPS,ioos:station:USF.COMPS:SHP:1,2008-12-01T21:36:00Z,30.0600,-84.2910,1016.02,1111122 
COMPS,ioos:station:USF.COMPS:SHP:1,2008-12-01T21:42:00Z,30.0600,-84.2910,1016.04,1111122 
COMPS,ioos:station:USF.COMPS:SHP:1,2008-12-01T21:48:00Z,30.0600,-84.2910,1016.16,1111122 
COMPS,ioos:station:USF.COMPS:SHP:1,2008-12-01T21:54:00Z,30.0600,-84.2910,1016.28,1111122 
COMPS,ioos:station:USF.COMPS:SHP:1,2008-12-01T22:00:00Z,30.0600,-84.2910,1016.36,1111122 
COMPS,ioos:station:USF.COMPS:SHP:1,2008-12-01T22:06:00Z,30.0600,-84.2910,1016.44,1111122 
COMPS,ioos:station:USF.COMPS:SHP:1,2008-12-01T22:12:00Z,30.0600,-84.2910,1016.53,1111122 
COMPS,ioos:station:USF.COMPS:SHP:1,2008-12-01T22:18:00Z,30.0600,-84.2910,1016.52,1111122 
COMPS,ioos:station:USF.COMPS:SHP:1,2008-12-01T22:24:00Z,30.0600,-84.2910,1016.65,1111122 
COMPS,ioos:station:USF.COMPS:SHP:1,2008-12-01T22:30:00Z,30.0600,-84.2910,1016.72,1111122 
COMPS,ioos:station:USF.COMPS:SHP:1,2008-12-01T22:36:00Z,30.0600,-84.2910,1016.65,1111122 
COMPS,ioos:station:USF.COMPS:SHP:1,2008-12-01T22:42:00Z,30.0600,-84.2910,1016.8,1111122 
COMPS,ioos:station:USF.COMPS:SHP:1,2008-12-01T22:48:00Z,30.0600,-84.2910,1016.84,1111122 
COMPS,ioos:station:USF.COMPS:SHP:1,2008-12-01T22:54:00Z,30.0600,-84.2910,1016.86,1111122 
COMPS,ioos:station:USF.COMPS:SHP:1,2008-12-01T23:00:00Z,30.0600,-84.2910,1016.93,1111122 
COMPS,ioos:station:USF.COMPS:SHP:1,2008-12-01T23:06:00Z,30.0600,-84.2910,1016.97,1111122 
COMPS,ioos:station:USF.COMPS:SHP:1,2008-12-01T23:12:00Z,30.0600,-84.2910,1017.04,1111122 
COMPS,ioos:station:USF.COMPS:SHP:1,2008-12-01T23:18:00Z,30.0600,-84.2910,1017.13,1111122 
COMPS,ioos:station:USF.COMPS:SHP:1,2008-12-01T23:24:00Z,30.0600,-84.2910,1017.05,1111122 
COMPS,ioos:station:USF.COMPS:SHP:1,2008-12-01T23:30:00Z,30.0600,-84.2910,1017.04,1111122 
COMPS,ioos:station:USF.COMPS:SHP:1,2008-12-01T23:36:00Z,30.0600,-84.2910,1016.98,1111122 
COMPS,ioos:station:USF.COMPS:SHP:1,2008-12-01T23:42:00Z,30.0600,-84.2910,1016.97,1111122 
COMPS,ioos:station:USF.COMPS:SHP:1,2008-12-01T23:48:00Z,30.0600,-84.2910,1017.04,1111122 
COMPS,ioos:station:USF.COMPS:SHP:1,2008-12-01T23:54:00Z,30.0600,-84.2910,1017.09,1111122 
COMPS,ioos:station:USF.COMPS:SHP:1,2008-12-02T00:00:00Z,30.0600,-84.2910,1017.18,1111122 
COMPS,ioos:station:USF.COMPS:SHP:1,2008-12-02T00:06:00Z,30.0600,-84.2910,1017.26,1111122 
COMPS,ioos:station:USF.COMPS:SHP:1,2008-12-02T00:12:00Z,30.0600,-84.2910,1017.21,1111122 
COMPS,ioos:station:USF.COMPS:SHP:1,2008-12-02T00:18:00Z,30.0600,-84.2910,1017.24,1111122 
COMPS,ioos:station:USF.COMPS:SHP:1,2008-12-02T00:24:00Z,30.0600,-84.2910,1017.34,1111122 
COMPS,ioos:station:USF.COMPS:SHP:1,2008-12-02T00:30:00Z,30.0600,-84.2910,1017.4,1111122 
COMPS,ioos:station:USF.COMPS:SHP:1,2008-12-02T00:36:00Z,30.0600,-84.2910,1017.46,1111122 
COMPS,ioos:station:USF.COMPS:SHP:1,2008-12-02T00:42:00Z,30.0600,-84.2910,1017.58,1111122 
COMPS,ioos:station:USF.COMPS:SHP:1,2008-12-02T00:48:00Z,30.0600,-84.2910,1017.76,1111122 
COMPS,ioos:station:USF.COMPS:SHP:1,2008-12-02T00:54:00Z,30.0600,-84.2910,1017.78,1111122 
COMPS,ioos:station:USF.COMPS:SHP:1,2008-12-02T01:00:00Z,30.0600,-84.2910,1017.8,1111122 
COMPS,ioos:station:USF.COMPS:SHP:1,2008-12-02T01:06:00Z,30.0600,-84.2910,1017.86,1111122 
COMPS,ioos:station:USF.COMPS:SHP:1,2008-12-02T01:12:00Z,30.0600,-84.2910,1017.92,1111122 
COMPS,ioos:station:USF.COMPS:SHP:1,2008-12-02T01:18:00Z,30.0600,-84.2910,1017.96,1111122 
COMPS,ioos:station:USF.COMPS:SHP:1,2008-12-02T01:24:00Z,30.0600,-84.2910,1018.13,1111122 
COMPS,ioos:station:USF.COMPS:SHP:1,2008-12-02T01:30:00Z,30.0600,-84.2910,1018.29,1111122 
COMPS,ioos:station:USF.COMPS:SHP:1,2008-12-02T01:36:00Z,30.0600,-84.2910,1018.36,1111122 
COMPS,ioos:station:USF.COMPS:SHP:1,2008-12-02T01:42:00Z,30.0600,-84.2910,1018.61,1111122 
COMPS,ioos:station:USF.COMPS:SHP:1,2008-12-02T01:48:00Z,30.0600,-84.2910,1018.77,1111122 
COMPS,ioos:station:USF.COMPS:SHP:1,2008-12-02T01:54:00Z,30.0600,-84.2910,1019.01,1111122 
COMPS,ioos:station:USF.COMPS:SHP:1,2008-12-02T02:00:00Z,30.0600,-84.2910,1019.08,1111122 
COMPS,ioos:station:USF.COMPS:SHP:1,2008-12-02T02:06:00Z,30.0600,-84.2910,1019.25,1111122 
COMPS,ioos:station:USF.COMPS:SHP:1,2008-12-02T02:12:00Z,30.0600,-84.2910,1019.33,1111122 
COMPS,ioos:station:USF.COMPS:SHP:1,2008-12-02T02:18:00Z,30.0600,-84.2910,1019.34,1111122 
COMPS,ioos:station:USF.COMPS:SHP:1,2008-12-02T02:24:00Z,30.0600,-84.2910,1019.56,1111122 
COMPS,ioos:station:USF.COMPS:SHP:1,2008-12-02T02:30:00Z,30.0600,-84.2910,1019.76,1111122 
COMPS,ioos:station:USF.COMPS:SHP:1,2008-12-02T02:36:00Z,30.0600,-84.2910,1019.9,1111122 
COMPS,ioos:station:USF.COMPS:SHP:1,2008-12-02T02:42:00Z,30.0600,-84.2910,1019.97,1111122 
COMPS,ioos:station:USF.COMPS:SHP:1,2008-12-02T02:48:00Z,30.0600,-84.2910,1019.92,1111122 
COMPS,ioos:station:USF.COMPS:SHP:1,2008-12-02T02:54:00Z,30.0600,-84.2910,1020.02,1111122 
COMPS,ioos:station:USF.COMPS:SHP:1,2008-12-02T03:00:00Z,30.0600,-84.2910,1020.14,1111122 
COMPS,ioos:station:USF.COMPS:SHP:1,2008-12-02T03:06:00Z,30.0600,-84.2910,1020.29,1111122 
COMPS,ioos:station:USF.COMPS:SHP:1,2008-12-02T03:12:00Z,30.0600,-84.2910,1020.45,1111122 
COMPS,ioos:station:USF.COMPS:SHP:1,2008-12-02T03:18:00Z,30.0600,-84.2910,1020.4,1111122 
COMPS,ioos:station:USF.COMPS:SHP:1,2008-12-02T03:24:00Z,30.0600,-84.2910,1020.1,1111122 
COMPS,ioos:station:USF.COMPS:SHP:1,2008-12-02T03:30:00Z,30.0600,-84.2910,1020.12,1111122 
COMPS,ioos:station:USF.COMPS:SHP:1,2008-12-02T03:36:00Z,30.0600,-84.2910,1020.25,1111122 
COMPS,ioos:station:USF.COMPS:SHP:1,2008-12-02T03:42:00Z,30.0600,-84.2910,1020.12,1111122 
COMPS,ioos:station:USF.COMPS:SHP:1,2008-12-02T03:48:00Z,30.0600,-84.2910,1019.96,1111122 
COMPS,ioos:station:USF.COMPS:SHP:1,2008-12-02T03:54:00Z,30.0600,-84.2910,1019.9,1111122 
COMPS,ioos:station:USF.COMPS:SHP:1,2008-12-02T04:00:00Z,30.0600,-84.2910,1019.72,1111122 
COMPS,ioos:station:USF.COMPS:SHP:1,2008-12-02T04:06:00Z,30.0600,-84.2910,1019.93,1111122 
COMPS,ioos:station:USF.COMPS:SHP:1,2008-12-02T04:12:00Z,30.0600,-84.2910,1020.08,1111122 
COMPS,ioos:station:USF.COMPS:SHP:1,2008-12-02T04:18:00Z,30.0600,-84.2910,1020.18,1111122 
COMPS,ioos:station:USF.COMPS:SHP:1,2008-12-02T04:24:00Z,30.0600,-84.2910,1020.53,1111122 
COMPS,ioos:station:USF.COMPS:SHP:1,2008-12-02T04:30:00Z,30.0600,-84.2910,1020.74,1111122 